Location: Betzi
(47.2343°N, 9.5260°E)
Time: 22:25:17
(UTC+00:00)

Cosmos 1455 - Pass Details

Date: 27 May 2022
Orbit: 492 x 515 km, 82.5° (Epoch: 29 June)

Event Time Altitude Azimuth Distance (km) Brightness Sun altitude
Rises 02:02:53 0° 338° (NNW) 2,585 6.2 -12.2°
Reaches altitude 10° 02:05:18 10° 324° (NW) 1,696 5.0 -11.9°
Maximum altitude 02:08:15 23° 271° (W) 1,101 3.5 -11.6°
Enters shadow 02:09:53 17° 235° (SW) 1,311 3.6 -11.5°
